Tracking 23099 objects as of 14-May-2021
HD Live streaming from Space Station
objects crossing your sky now

SL-24 DEB


SL-24 DEB is no longer on orbit


NORAD ID: 40048
Int'l Code: 2014-033AQ
Perigee: N/A
Apogee: N/A
Inclination: N/A
Period: N/A
Semi major axis: N/A
RCS: N/A
Launch date: June 19, 2014
Source: Commonwealth of Independent States (former USSR) (CIS)
Launch site: Orenburg, Russia (OREN)
Decay date: 2020-12-21

Note: This is SATELLITE DEBRIS
aabbcc
Your satellite tracking list
Your tracking list is empty




NASA's NSSDC Master Catalog

Two Line Element Set (TLE):
1 40048U 14033AQ  20356.07882275  .41746556  27791-5  12841-2 0  9999
2 40048  97.9340  98.9100 0012414 318.5123  41.9028 16.43933885363244
Source of the keplerian elements: AFSPC